Terminal Aerodrome Forecast
Issued by NWS Charleston, WV

Current Version | Previous Version | Text Only | Print | Product List | Glossary Off
Versions: 1 2 3 4 5 6 7 8 9 10 11 12 13 14 15 16 17 18 19 20 21 22 23 24

000
FTUS41 KRLX 160902 AAA
TAFBKW
TAF AMD
KBKW 160902Z 1609/1706 32010KT P6SM OVC020
     FM161500 32011G18KT P6SM BKN030
     FM161800 33011G18KT P6SM SCT035
     FM162000 33009KT P6SM FEW040
     FM170000 34005KT P6SM SKC=

USA.gov is the U.S. government's official web portal to all federal, state and local government web resources and services.